Louisville Bowman, KY

10:18 AM EDT on August 23, 2019 (GMT -0400)
Bowman

Weather History for KLOU - May, 2019

Change the Weather History Date:

Sunday, May 12, 2019

  Actual Average Record
Temperature  
Mean Temperature 55 °F 65 °F  
Max Temperature 59 °F 75 °F 89 °F (1957)
Min Temperature 50 °F 55 °F 41 °F (1960)
Degree Days  
Heating Degree Days 10 3  
Month to date heating degree days 25 43  
Since 1 July heating degree days 4079 4234  
Cooling Degree Days 0 3  
Month to date cooling degree days 30 25  
Year to date cooling degree days 47 59  
Growing Degree Days 4 (Base 50)    
Moisture  
Dew Point 50 °F    
Average Humidity 85    
Maximum Humidity 93    
Minimum Humidity 77    
Precipitation  
Precipitation 0.06 in 0.17 in 1.13 in (1959)
Month to date precipitation 2.15 2.14  
Year to date precipitation 25.56 16.94  
Sea Level Pressure  
Sea Level Pressure 29.76 in    
Wind  
Wind Speed 5 mph (WNW)    
Max Wind Speed 12 mph    
Max Gust Speed 17 mph    
Visibility 8 miles    
Events Rain    
T = Trace of Precipitation, MM = Missing Value Source: NWS Daily Summary

Daily Weather History Graph

Daily Weather History Graph

Search for Another Location

Airport or City:

Astronomy

May. 12, 2019 Rise Set
Actual Time 6:34 AM EDT 8:43 PM EDT
Civil Twilight 6:05 AM EDT 9:13 PM EDT
Nautical Twilight 5:29 AM EDT 9:49 PM EDT
Astronomical Twilight 4:50 AM EDT 10:28 PM EDT
Moon 1:52 PM EDT (5/12) 3:06 AM EDT (5/12)
Length of Visible Light 15h 08m
Length of Day
14h 09m
First Quarter, 57% of the Moon is Illuminated
May 12
First Quarter
May 18
Full
May 26
Last Quarter
Jun 3
New
Jun 10
First Quarter

Hourly Weather History & Observations

Time (EDT) Temp. Dew Point Humidity Pressure Visibility Wind Dir Wind Speed Gust Speed Precip Events Conditions
12:53 AM 59.0 °F 55.9 °F 90% 29.72 in 3.0 mi NW 6.9 mph - 0.00 in   Overcast
1:11 AM 59.0 °F 55.9 °F 90% 29.73 in 2.5 mi NNW 5.8 mph - 0.01 in Rain Light Rain
1:21 AM 59.0 °F 55.9 °F 90% 29.73 in 3.0 mi Variable 5.8 mph - 0.01 in Rain Light Rain
1:53 AM 57.0 °F 55.0 °F 93% 29.72 in 3.0 mi WNW 6.9 mph - 0.02 in Rain Light Rain
2:53 AM 55.0 °F 52.0 °F 89% 29.72 in 4.0 mi NNW 6.9 mph - 0.02 in Rain Light Rain
3:03 AM 55.0 °F 52.0 °F 89% 29.72 in 4.0 mi NW 4.6 mph - 0.00 in   Overcast
3:33 AM 54.0 °F 51.1 °F 90% 29.72 in 4.0 mi Variable 4.6 mph - 0.00 in   Overcast
3:53 AM 54.0 °F 51.1 °F 90% 29.72 in 6.0 mi NW 5.8 mph - 0.00 in   Overcast
4:53 AM 52.0 °F 48.9 °F 89% 29.72 in 5.0 mi NW 5.8 mph - N/A   Overcast
5:53 AM 51.1 °F 48.0 °F 89% 29.73 in 8.0 mi NW 5.8 mph - N/A   Overcast
6:53 AM 50.0 °F 48.0 °F 93% 29.76 in 3.0 mi NW 3.5 mph - N/A   Overcast
7:25 AM 50.0 °F 46.9 °F 89% 29.77 in 2.0 mi NNW 4.6 mph - N/A   Overcast
7:50 AM 50.0 °F 46.4 °F 87% 29.77 in 4.0 mi NNW 4.6 mph - N/A   Overcast
7:53 AM 50.0 °F 46.9 °F 89% 29.77 in 5.0 mi North 3.5 mph - N/A   Overcast
8:36 AM 51.1 °F 46.9 °F 86% 29.78 in 10.0 mi WNW 4.6 mph - N/A   Overcast
8:53 AM 51.1 °F 48.0 °F 89% 29.77 in 10.0 mi NNW 3.5 mph - N/A   Overcast
9:17 AM 52.0 °F 48.0 °F 86% 29.78 in 10.0 mi WNW 4.6 mph - N/A   Overcast
9:40 AM 52.0 °F 48.0 °F 86% 29.78 in 10.0 mi NW 3.5 mph - N/A   Overcast
9:53 AM 53.1 °F 46.9 °F 80% 29.78 in 10.0 mi Calm Calm - N/A   Overcast
10:53 AM 54.0 °F 48.9 °F 83% 29.77 in 10.0 mi Calm Calm - N/A   Overcast
11:53 AM 55.0 °F 48.9 °F 80% 29.78 in 10.0 mi West 4.6 mph - N/A   Overcast
12:53 PM 55.9 °F 51.1 °F 84% 29.78 in 10.0 mi WSW 4.6 mph - 0.01 in   Overcast
1:53 PM 57.0 °F 51.1 °F 81% 29.78 in 10.0 mi West 5.8 mph - N/A   Overcast
2:00 PM 57.0 °F 51.1 °F 81% 29.78 in 10.0 mi West 5.8 mph - N/A   Overcast
2:53 PM 57.9 °F 51.1 °F 78% 29.76 in 10.0 mi WSW 6.9 mph - N/A   Overcast
3:53 PM 57.9 °F 53.1 °F 84% 29.76 in 9.0 mi WSW 5.8 mph - 0.01 in Rain Light Rain
4:03 PM 57.9 °F 53.1 °F 84% 29.76 in 10.0 mi West 6.9 mph - 0.00 in   Overcast
4:53 PM 57.9 °F 52.0 °F 81% 29.76 in 10.0 mi West 6.9 mph - 0.00 in   Overcast
5:32 PM 57.9 °F 52.0 °F 81% 29.76 in 10.0 mi West 6.9 mph - N/A   Overcast
5:53 PM 57.9 °F 51.1 °F 78% 29.75 in 10.0 mi West 5.8 mph - N/A   Overcast
6:53 PM 57.0 °F 50.0 °F 77% 29.76 in 10.0 mi WNW 6.9 mph - N/A   Overcast
7:53 PM 55.9 °F 48.9 °F 77% 29.77 in 10.0 mi West 6.9 mph - N/A   Overcast
8:16 PM 55.9 °F 48.9 °F 77% 29.77 in 10.0 mi WNW 4.6 mph - N/A   Overcast
8:44 PM 55.9 °F 48.9 °F 77% 29.79 in 10.0 mi WNW 8.1 mph - N/A   Overcast
8:53 PM 55.9 °F 48.0 °F 75% 29.79 in 10.0 mi West 5.8 mph - N/A   Overcast
9:53 PM 55.0 °F 48.0 °F 77% 29.80 in 10.0 mi WNW 5.8 mph - N/A   Overcast
10:53 PM 55.0 °F 48.0 °F 77% 29.82 in 10.0 mi West 8.1 mph - N/A   Overcast
11:53 PM 54.0 °F 46.9 °F 77% 29.82 in 10.0 mi WNW 8.1 mph - N/A   Overcast